RYR73T EDDB-LICR

Flight info

Callsign RYR73T
Flight time N/A
Altitude 34000
Route LUROS3B LUROS Y211 BEBKU DCT MAREM/N0461F350 DCT APRAQ DCT BUDEX DCT ADLET DCT ROPUS DCT SUXUB DCT SOR/N0396F190 Q58 FOSQA FOSQA1Q
Aircraft B738/M-SDE2E3FGHIRWXY/LB1

Departure

Time 2026-05-06 13:40
Airport Berlin Brandenburg Airport (EDDB)

Arrival

Time N/A
Airport Reggio Calabria Airport (LICR)
Time Latitude Longitude Altitude Speed Heading
2026-05-06 12:52 52.36787 13.50742 165 ft 0 kts 158°
2026-05-06 13:28 52.36799 13.50734 165 ft 2 kts 158°
2026-05-06 13:29 52.36813 13.50726 165 ft 2 kts 158°
2026-05-06 13:29 52.36827 13.50717 165 ft 2 kts 158°
2026-05-06 13:29 52.36841 13.50708 165 ft 2 kts 159°
2026-05-06 13:29 52.36855 13.50699 165 ft 2 kts 158°
2026-05-06 13:30 52.36858 13.50697 165 ft 0 kts 159°
2026-05-06 13:34 52.36857 13.50697 165 ft 1 kts 171°
2026-05-06 13:34 52.36844 13.50654 165 ft 7 kts 256°
2026-05-06 13:34 52.36828 13.50562 165 ft 13 kts 249°
2026-05-06 13:34 52.36795 13.50417 165 ft 13 kts 249°
2026-05-06 13:35 52.36763 13.50284 165 ft 11 kts 248°
2026-05-06 13:35 52.36735 13.50168 165 ft 10 kts 249°
2026-05-06 13:35 52.36729 13.50090 165 ft 4 kts 279°
2026-05-06 13:35 52.36745 13.50054 165 ft 4 kts 327°
2026-05-06 13:36 52.36782 13.49959 165 ft 13 kts 257°
2026-05-06 13:36 52.36747 13.49805 165 ft 17 kts 248°
2026-05-06 13:36 52.36701 13.49611 165 ft 17 kts 249°
2026-05-06 13:36 52.36657 13.49430 165 ft 16 kts 248°
2026-05-06 13:37 52.36613 13.49246 165 ft 20 kts 249°
2026-05-06 13:37 52.36563 13.49025 165 ft 20 kts 248°
2026-05-06 13:37 52.36509 13.48808 165 ft 23 kts 248°
2026-05-06 13:37 52.36449 13.48556 165 ft 23 kts 248°
2026-05-06 13:38 52.36452 13.48410 165 ft 8 kts 329°
2026-05-06 13:38 52.36505 13.48379 165 ft 7 kts 340°
2026-05-06 13:38 52.36536 13.48360 165 ft 3 kts 340°
2026-05-06 13:38 52.36585 13.48330 165 ft 13 kts 338°
2026-05-06 13:39 52.36667 13.48282 165 ft 11 kts 350°
2026-05-06 13:39 52.36732 13.48349 165 ft 15 kts 66°
2026-05-06 13:39 52.36848 13.48840 165 ft 84 kts 68°
2026-05-06 13:39 52.37151 13.50116 166 ft 153 kts 68°
2026-05-06 13:40 52.37559 13.51890 707 ft 170 kts 67°
2026-05-06 13:40 52.37949 13.53616 1757 ft 159 kts 65°
2026-05-06 13:40 52.38365 13.55292 2337 ft 166 kts 64°
2026-05-06 13:40 52.38806 13.57107 2776 ft 181 kts 65°
2026-05-06 13:41 52.39281 13.59105 3216 ft 197 kts 65°
2026-05-06 13:41 52.39799 13.61286 3658 ft 213 kts 65°
2026-05-06 13:41 52.40351 13.63619 4096 ft 231 kts 65°
2026-05-06 13:41 52.40963 13.66210 4548 ft 250 kts 66°
2026-05-06 13:42 52.41597 13.68893 5130 ft 264 kts 66°
2026-05-06 13:42 52.42281 13.71796 5656 ft 280 kts 66°
2026-05-06 13:42 52.42981 13.74775 6404 ft 286 kts 66°
2026-05-06 13:42 52.43700 13.77835 7174 ft 291 kts 67°
2026-05-06 13:43 52.44455 13.80940 7899 ft 297 kts 71°
2026-05-06 13:43 52.44633 13.84284 8720 ft 300 kts 101°
2026-05-06 13:43 52.43796 13.87327 9399 ft 300 kts 132°
2026-05-06 13:43 52.42240 13.89592 10152 ft 298 kts 147°
2026-05-06 13:44 52.40447 13.91374 10545 ft 309 kts 163°
2026-05-06 13:44 52.38325 13.91863 10965 ft 313 kts 187°
2026-05-06 13:44 52.36130 13.91414 11374 ft 325 kts 192°
2026-05-06 13:44 52.33837 13.90858 11751 ft 341 kts 191°
2026-05-06 13:45 52.31439 13.90348 12106 ft 356 kts 190°
2026-05-06 13:45 52.26445 13.89415 13367 ft 368 kts 189°
2026-05-06 13:45 52.23903 13.88963 13934 ft 360 kts 189°
2026-05-06 13:46 52.21357 13.88509 14237 ft 373 kts 189°
2026-05-06 13:46 52.18815 13.88057 15010 ft 373 kts 189°
2026-05-06 13:46 52.16230 13.87599 15684 ft 376 kts 189°
2026-05-06 13:46 52.13605 13.87137 16318 ft 380 kts 189°
2026-05-06 13:47 52.10981 13.86675 16987 ft 382 kts 189°
2026-05-06 13:47 52.10604 13.86608 17078 ft 383 kts 189°
2026-05-06 13:47 52.08556 13.86247 17572 ft 385 kts 189°
2026-05-06 13:47 52.05921 13.85784 18203 ft 387 kts 189°
2026-05-06 13:48 52.03239 13.85314 18833 ft 390 kts 189°
2026-05-06 13:48 52.00533 13.84840 19425 ft 393 kts 189°
2026-05-06 13:48 51.97810 13.84362 20050 ft 395 kts 189°
2026-05-06 13:48 51.95083 13.83885 20637 ft 397 kts 189°
2026-05-06 13:49 51.92321 13.83403 21221 ft 399 kts 189°
2026-05-06 13:49 51.89577 13.82924 21738 ft 403 kts 189°
2026-05-06 13:49 51.86769 13.82434 22248 ft 407 kts 189°
2026-05-06 13:49 51.83964 13.81947 22826 ft 409 kts 189°
2026-05-06 13:50 51.81108 13.81450 23307 ft 412 kts 189°
2026-05-06 13:50 51.78226 13.80950 23806 ft 416 kts 189°
2026-05-06 13:50 51.75371 13.80455 24350 ft 418 kts 189°
2026-05-06 13:50 51.72496 13.79957 24892 ft 419 kts 189°
2026-05-06 13:51 51.69568 13.79451 25362 ft 423 kts 189°
2026-05-06 13:51 51.66665 13.78950 25935 ft 423 kts 189°
2026-05-06 13:51 51.63725 13.78443 26395 ft 426 kts 189°
2026-05-06 13:51 51.60777 13.77935 26841 ft 428 kts 189°
2026-05-06 13:52 51.57793 13.77422 27346 ft 429 kts 189°
2026-05-06 13:52 51.54841 13.76916 27763 ft 432 kts 189°
2026-05-06 13:52 51.51859 13.76405 28176 ft 435 kts 190°
2026-05-06 13:52 51.48847 13.75892 28966 ft 428 kts 189°
2026-05-06 13:53 51.45948 13.75399 29731 ft 422 kts 190°
2026-05-06 13:53 51.42998 13.74896 30249 ft 422 kts 190°
2026-05-06 13:53 51.40102 13.74400 30687 ft 422 kts 190°
2026-05-06 13:53 51.37173 13.73897 30745 ft 425 kts 190°
2026-05-06 13:54 51.34235 13.73395 30906 ft 426 kts 190°
2026-05-06 13:54 51.31326 13.72903 31617 ft 417 kts 190°
2026-05-06 13:54 51.28440 13.72415 31983 ft 418 kts 190°
2026-05-06 13:54 51.25537 13.71921 32275 ft 419 kts 190°